COSMOS 2251 DEB

Satellite information

Favourite Embed

Satellite Type and Status

DEBRISIN ORBIT

Key statistics

Satellite COSMOS 2251 DEB at a glance.

Uptime

11823

Days in orbit

Revolutions

≈ 15.0

Per day

Orbit

LEO

Low Earth Orbit

Inclination

74.0

Latest

Satellite identification and parameters

Extended collection of information and parameters for COSMOS 2251 DEB.

Object identification

Identified? True

Debris? True

Object name: COSMOS 2251 DEB

International designator: 1993-036AUQ

Object number (NORAD): 35901

Object ID (CCSDS): 35901

Country: COMMONWEALTH OF INDEPENDENT STATES (CIS)

Current information (Y/N): Y

RCS size: SMALL

Orbital parameters

Period: 95.967 minutes

Inclination: 74.0122 deg

SMA: 6943.452 km

Apoapsis: 571.107 km

Periapsis: 559.528 km

RAAN: 120.1852 deg

Eccentricy: 0.00083377

Argument of periapsis: 177.9338 deg

Mean anomaly: 304.9247 deg

Mean motion: 15.00512313 rev/day

Mean motion (dot): 0.00044162 rev/day2

B* drag term: 0.0034814939 1/REarth

Two-line elements (TLE)

Creation date: Oct. 26, 2025, 10:54 a.m.

Reference frame: TEME

Reference center: EARTH

Epoch: Oct. 26, 2025, 4:58 a.m. UTC

TLE line 0: 0 COSMOS 2251 DEB

TLE line 1: 1 35901U 93036AUQ 25299.20703793 .00044162 00000-0 34815-2 0 9997

TLE line 2: 2 35901 74.0122 120.1852 0008338 177.9338 304.9247 15.00512313854125

Live tracking on map

Real-time ground track for satellite COSMOS 2251 DEB.

In-orbit conjunctions

A list of the most updated potential collisions computed for object COSMOS 2251 DEB.

Target Orbit TCA Probability of collision Miss distance Type
CZ-2C R/B SSO 2025-06-03 22:19:35 0.0001377112 804.0 (m) ROCKET BODY
ALOS DEB SSO 2024-11-19 12:16:00 0.0001258028 46.0 (m) DEBRIS

Associated space launch

Military communications satellite. Destroyed in a collision with Iridium 33.

COSMOS 2251 DEB was lifted into orbit during the mission ‘Kosmos-3M | Strela-2M 51’, on board a Kosmos-3M space rocket.

The launch took place on June 16, 1993, 4:17 a.m. from 132/1 (132L).

For more information about the launch, click the button.

Launch to space Kosmos-3M | Strela-2M 51
Kosmos-3M | Strela-2M 51

Agency: N/A

Status: Launch Successful

Launch date: June 16, 1993, 4:17 a.m. UTC

Rocket: Kosmos-3M

Launch pad: 132/1 (132L)

Location: Plesetsk Cosmodrome, Russian Federation

...

Latest news about this satellite

There are no fresh news available about this satellite. Check back as we update our databases every day.


Newsletter sign-up

Weekly statistics, charts and insights to help you stay on top of the space industry.